Location: Mansh?yat as Sayl al Jad?dah
(24.0833°N, 32.9167°E)
Time: 02:37:21
(UTC+00:00)

Daily predictions for brighter satellites

Satellite Brightness Start Highest point End
(mag) Time Altitude Azimuth Time Altitude Azimuth Time Altitude Azimuth
ADEOS II 3.0 00:05:34 10° NNE 00:09:23 46° NE 00:09:23 46° NE
Cosmos 2263 Rocket 4.4 00:07:47 10° NNE 00:11:56 21° ENE 00:16:02 10° ESE
Envisat 4.0 00:09:12 10° NNE 00:13:00 43° ENE 00:13:00 43° ENE
Cosmos 2297 Rocket 4.0 00:13:09 10° NNW 00:15:01 21° NW 00:15:01 21° NW
CZ-2D R/B 3.0 00:16:24 10° N 00:19:52 41° NNW 00:19:52 41° NNW
Cosmos 1980 Rocket 3.4 00:23:29 31° NNW 00:23:29 31° NNW 00:26:58 10° N
Cosmos 1238 Rocket 4.3 00:17:43 10° N 00:22:35 44° ENE 00:22:35 44° ENE
SeaSat 1 4.1 00:31:57 24° NNW 00:31:57 24° NNW 00:33:51 10° NNW
Meteor 2-6 Rocket 4.3 00:25:35 10° N 00:31:03 80° NNE 00:31:03 80° NNE
Milstar 3 Cent rocket 3.2 00:35:28 33° SE 00:35:28 33° SE 00:38:37 10° E
Nadezhda 1 Rocket 4.1 00:29:20 10° NNW 00:34:36 58° NW 00:34:36 58° NW
Resurs 1-4 Rocket 3.2 00:31:04 10° N 00:34:32 33° NW 00:34:32 33° NW
CENTAUR R/B 3.2 00:37:30 30° ESE 00:37:59 31° ESE 00:42:50 10° NE
Cosmos 1709 Rocket 4.4 00:41:17 49° WNW 00:41:17 49° WNW 00:46:51 10° N
H-2A R/B 2.9 00:41:21 10° NNE 00:45:56 40° E 00:46:59 35° SE
Cosmos 2278 4.0 00:46:45 52° SE 00:47:39 59° ESE 00:53:10 10° NNE
Cosmos 614 Rocket 4.0 00:45:03 10° N 00:50:04 71° ENE 00:50:54 58° SE
Cosmos 2227 Rocket 2.2 00:44:34 10° NNW 00:49:39 66° WNW 00:49:39 66° WNW
OAO 3 Rocket 3.3 00:55:58 61° ESE 00:55:58 61° ESE 01:00:03 10° ENE
AQUA 3.8 00:53:36 10° N 00:57:53 66° NW 00:57:53 66° NW
Cosmos 2360 Rocket 3.5 00:57:24 21° SSE 01:00:14 33° ESE 01:05:11 10° NE
Yuri Rocket 3.6 01:04:30 44° NNW 01:05:04 47° N 01:09:16 10° ENE
CZ-2C R/B 3.5 01:04:45 10° NNE 01:09:28 41° E 01:12:36 20° SSE
ASC 2 Rocket 3.3 01:10:00 59° S 01:10:21 61° SSE 01:16:22 10° E
ALOS 3.8 01:08:23 10° NNW 01:10:57 22° NW 01:10:57 22° NW
USA 290 3.2 01:09:16 10° N 01:12:25 44° ENE 01:12:39 43° E
Cosmos 2322 Rocket 2.6 01:13:04 30° S 01:15:45 59° ESE 01:21:18 10° NNE
Cosmos 2221 4.3 01:14:31 10° NNW 01:16:11 19° NW 01:16:11 19° NW
USA 281 3.7 01:12:47 10° NNE 01:19:12 57° ESE 01:23:59 19° S
Cosmos 1295 Rocket 4.3 01:17:50 35° SSW 01:20:35 79° W 01:26:41 10° N
Cosmos 2333 Rocket 2.3 01:17:56 32° S 01:20:37 72° ESE 01:26:18 10° NNE
Cosmos 2219 Rocket 4.0 01:16:37 10° SSE 01:21:13 26° ESE 01:25:48 10° NE
Cosmos 2184 Rocket 3.9 01:21:12 30° SSW 01:24:31 79° W 01:30:52 10° N
Aurora 2 Rocket 2.0 01:28:34 54° SE 01:28:34 54° SE 01:31:23 10° E
Hubble Space Telescope 1.4 01:27:10 34° NW 01:28:16 45° N 01:31:58 10° ENE
Meteor 1-5 Rocket 4.3 01:27:21 34° SSW 01:29:53 64° W 01:35:39 10° N
Meteor 1-19 Rocket 4.3 01:25:59 10° NNW 01:31:21 55° W 01:34:11 28° SSW
USA 234 4.4 01:27:57 10° NNE 01:33:27 30° NW 01:36:53 19° W
Cosmos 2154 Rocket 3.9 01:30:37 24° SSW 01:34:31 75° W 01:40:46 10° N
Meteor 2-4 Rocket 4.4 01:30:05 10° N 01:35:18 51° E 01:40:27 10° SSE
Meteor 1-28 Rocket 2.8 01:34:08 33° SSE 01:35:30 83° ENE 01:38:51 10° N
Intelsat 5-2 Rocket 1.8 01:36:14 81° SSE 01:36:14 81° SSE 01:38:33 10° E
SL-16 R/B 2.4 01:31:51 10° S 01:38:03 78° WSW 01:44:20 10° NNW
Centaur AC-112 3.4 01:29:37 10° W 01:38:22 38° SW 01:41:20 10° SE
Cosmos 2082 3.6 01:34:29 10° NNW 01:40:10 89° ENE 01:45:46 10° SSE
SL-16 R/B 2.8 01:38:38 30° WSW 01:40:35 40° WNW 01:45:52 10° N
Cosmos 2219 3.3 01:43:09 10° NNW 01:48:37 53° WSW 01:54:02 10° S
ADEOS II 4.2 01:49:09 10° WNW 01:49:42 10° WNW 01:50:13 10° WNW
ARGOS 3.2 01:44:27 10° NNE 01:49:53 80° ESE 01:55:17 10° S
Helios 1A Rocket 4.3 01:47:11 10° SE 01:50:26 34° ENE 01:53:40 10° N
ADEOS Rocket 3.7 01:44:23 10° NNE 01:52:05 81° ESE 01:59:49 10° S
Meteor 2-10 4.2 01:46:58 10° S 01:52:28 78° E 01:57:46 10° N
Cosmos 921 Rocket 3.5 01:49:28 10° NNW 01:53:31 37° W 01:55:43 22° SSW
Cosmos 1707 2.1 01:50:22 10° N 01:53:38 84° W 01:56:28 13° S
Cosmos 2263 Rocket 2.7 01:50:45 10° NW 01:55:46 35° WSW 02:00:45 10° SSW
JB-3 4.1 01:52:41 10° SSE 01:56:20 84° ENE 02:00:01 10° N
Intelsat 5-1 Rocket 4.1 01:41:17 10° W 02:01:31 85° S 02:07:51 10° E
Cosmos 1805 3.3 01:58:43 10° S 02:02:06 65° E 02:05:31 10° NNE
SWIFT 2.3 02:04:37 24° WSW 02:06:28 47° S 02:09:57 10° ESE
KORONAS-FOTON 4.3 02:06:31 10° NNW 02:09:42 33° W 02:12:06 15° SSW
BREEZE-M DEB (TANK) 4.1 02:06:52 10° NNW 02:09:44 48° NE 02:17:17 10° SE
Cosmos 44 Rocket 4.4 02:07:35 17° WSW 02:10:02 27° WNW 02:13:58 10° N
Meteor 1-27 Rocket 4.4 02:05:27 10° NNW 02:10:45 35° W 02:16:02 10° SSW
NOSS 3-2 (A) 2.8 02:07:15 15° SSW 02:11:07 78° WNW 02:16:17 10° NNE
Cosmos 1151 Rocket 3.7 02:07:57 10° N 02:12:11 57° E 02:16:22 10° SSE
IRS-1D 3.6 02:07:43 10° NNE 02:12:38 72° ESE 02:17:32 10° S
Cosmos 2333 4.3 02:09:16 13° SSW 02:14:20 60° WNW 02:19:54 10° N
NOSS 2-2 (C) 4.4 02:12:26 10° S 02:16:40 40° ESE 02:19:57 10° NE
USA 276 3.1 02:16:08 17° W 02:17:28 25° NW 02:19:35 10° NNE
Cosmos 2227 4.3 02:18:00 10° NNW 02:23:43 83° ENE 02:29:25 10° SSE
H-2A R/B 3.8 02:22:19 10° NW 02:24:50 14° WNW 02:27:21 10° W
Cosmos 405 Rocket 2.3 02:24:04 10° SSW 02:27:18 62° W 02:30:31 10° N
CENTAUR R/B 3.6 02:24:37 10° W 02:28:26 21° NW 02:32:55 10° N
Cosmos 1939 Rocket 3.0 02:26:30 10° N 02:30:13 50° WNW 02:33:57 10° SSW
Cosmos 1844 4.4 02:25:29 10° N 02:31:08 62° ENE 02:36:48 10° SSE
BlueWalker 3 3.4 02:29:11 10° NNW 02:32:36 39° NE 02:36:01 10° ESE
Delta 2 Rocket 4.0 02:31:18 10° W 02:35:20 45° NNW 02:39:11 10° NE
OAO 3 Rocket 4.4 02:34:31 10° W 02:38:43 33° NNW 02:42:53 10° NE
ISS -2.9 02:36:03 10° NNW 02:39:21 55° NE 02:42:37 10° SE
Cosmos 1766 4.5 02:38:30 10° SSE 02:41:41 38° E 02:44:53 10° NNE
Iridium 4 Rocket 3.9 02:37:10 10° SSW 02:42:48 61° W 02:48:32 10° N
Cosmos 1269 Rocket 4.4 02:38:57 10° NNW 02:43:52 41° W 02:48:47 10° S
Cosmos 2360 Rocket 3.5 02:39:53 10° WSW 02:44:07 22° WNW 02:48:23 10° NNW
Cosmos 2341 Rocket 4.2 02:40:17 10° SSW 02:46:19 54° W 02:52:22 10° N
ACS3 Solar Sail 2.0 02:40:55 10° NNE 02:46:57 81° ESE 02:53:08 10° S
ATLAS 2AS CENTAUR R/B 3.0 02:41:22 10° NW 02:47:35 42° WSW 02:53:51 10° S
Centaur D-1A AC-31 2.7 02:28:38 10° WSW 02:50:37 86° NNW 02:55:03 10° ENE
